Showing default

WEINA 1B, 43279

Orbit data source: Space-Track

WEINA 1B, 43279 is a payload satellite owned by Weina (CN) in LEO that was launched on Tue, 10 Apr 2018 UTC via a CHANG ZHENG 4C launch vehicle from the Jiuquan Satellite Launch Center, China (JSC). Payloads include a variety of satellites, spacecraft, and rockets equipped with specific instruments for various scientific and technological missions. These include communications satellites like Starlink; space stations such as the ISS; scientific satellites like the Hubble; Earth observation satellites from companies like Planet Labs, Umbra, and HawkEye 360; GPS; miniature CubeSats for education and research; and military/defense satellites.

Loading next visibility...
WEINA 1B details
Identifier
43279, 2018-034E
Orbit
LEO
Last TLE update8 hours ago
Origin
Flag of CNWeina (CN / PRC)
ManufacturerSECM?
MissionOperational Defense Technology
Bus & MotorUnknown
Mass~10 kg wet, ~10 kg dry
Launch date (UTC)
2018-04-10 (7 years ago)
Launch vehicle
CHANG ZHENG 4C
Launch site
Jiuquan Satellite Launch Center, China (JSC)
Object type
Payload
Rocket body
Debris
Shape & HBRBox, 0.3 m
Radar Cross Section0.035 m², Medium (>0.1 m² and < 1m²)

Expand to show TLE details & history

TLE from 8 hours ago
0 WEINA 1B
1 43279U 18034E   24361.29773769 -.00000001  00000-0  12938-3 0  9995
2 43279  63.3994  35.1800 0227229   6.3517 354.0304 13.45307080329840
Epoch: 2024-12-26T07:08Z
Definitive object data (Epoch: 2024-12-26T07:08:44.536Z)
Latitude-0.00005°
Longitude-167.28474°
Altitude922.601 km
Speed7.474 km/s
True Right ascension02h 20m 43s
True Declination0° 00' 00"
Sunlit
Object was in daylight at TLE epoch
Visualization TLE readout
Latitude44.7438°
Longitude-17.70657°
Altitude1,181.95 km
Speed7.225 km/s
Apparent Right ascension07h 58m 01s
Apparent Declination24° 57' 59"
Sunlit
Object is in daylight
Visualization observer readout
Local Sidereal Time14:16:09
Azimuth292.25° WNW
Elevation12.466°
Doppler factor1
Orbital elements
Apogee altitude1,258.065 km
Perigee altitude918.742 km
Semi-major axis7,466.541 km
Eccentricity0.0227229
Inclination63.3994°
RAAN35.18°
Arg. of periapsis6.3517°
True anomaly353.75174°
Mean anomaly354.0304°
Eccentric anomaly353.89187°
Mean motion3.36406 °/min
BSTAR0.00012938
Orbital period107.01 mins
Loading maneuver chart data...
Loading historical data...
Loading historical data...
Loading historical data...
Loading historical data...
Loading historical data...
Loading historical data...
Loading historical data...

WEINA 1B Visibility forecast

Observer location: undefined°, undefined

Span
Click to sort rows by Start time (UTC) header in descending order
Start Az.
Max El. time (UTC)
Max El. Az.
Max El.
End time (UTC)
End Az.
9 mins2024-12-26 14:54:14.435Z292.054° WNW2024-12-26 14:58:14.435Z256.468° W19.696°2024-12-26 15:03:14.435Z211.754° SW
7 mins2024-12-27 02:54:14.435Z141.552° SSE2024-12-27 02:57:14.435Z106.306° ESE18.745°2024-12-27 03:01:14.435Z65.244° ENE
11 mins2024-12-27 04:42:14.435Z226.957° WSW2024-12-27 04:47:14.435Z327.014° NNW42.297°2024-12-27 04:53:14.435Z29.591° NE
6 mins2024-12-27 06:36:14.435Z303.166° NW2024-12-27 06:39:14.435Z335.505° NNW16.215°2024-12-27 06:42:14.435Z4.571° NNE
6 mins2024-12-27 10:24:14.435Z4.669° NNE2024-12-27 10:26:14.435Z23.307° NE15.166°2024-12-27 10:30:14.435Z58.612° ENE
13 mins2024-12-27 12:13:14.435Z337.806° N2024-12-27 12:19:14.435Z57.538° ENE38.173°2024-12-27 12:26:14.435Z125.127° SE
12 mins2024-12-27 14:04:14.435Z303.829° NW2024-12-27 14:09:14.435Z249.672° W30.661°2024-12-27 14:16:14.435Z184.025° SSW
|